TimeMST,TemperatureF,Dew PointF,Humidity,Sea Level PressureIn,VisibilityMPH,Wind Direction,Wind SpeedMPH,Gust SpeedMPH,PrecipitationIn,Events,Conditions,WindDirDegrees,DateUTC
12:15 AM,21.2,19.4,93,30.23,10.0,Calm,Calm,-,N/A,,Mostly Cloudy,0,2013-02-15 07:15:00
12:35 AM,21.2,19.4,93,30.24,4.0,Calm,Calm,-,N/A,,Overcast,0,2013-02-15 07:35:00
12:55 AM,21.2,19.4,93,30.24,3.0,North,3.5,-,N/A,,Overcast,10,2013-02-15 07:55:00
1:15 AM,21.2,21.2,100,30.24,2.5,North,3.5,-,N/A,,Overcast,350,2013-02-15 08:15:00
1:35 AM,21.2,21.2,100,30.24,2.0,North,3.5,-,N/A,,Overcast,360,2013-02-15 08:35:00
1:55 AM,21.2,19.4,93,30.24,3.0,North,4.6,-,N/A,,Overcast,360,2013-02-15 08:55:00
2:15 AM,21.2,19.4,93,30.24,4.0,Calm,Calm,-,N/A,,Overcast,0,2013-02-15 09:15:00
2:35 AM,19.4,19.4,100,30.24,10.0,ENE,3.5,-,N/A,,Mostly Cloudy,70,2013-02-15 09:35:00
2:55 AM,21.2,19.4,93,30.24,10.0,ESE,4.6,-,N/A,,Overcast,120,2013-02-15 09:55:00
3:15 AM,21.2,19.4,93,30.24,10.0,SSE,3.5,-,N/A,,Overcast,160,2013-02-15 10:15:00
3:35 AM,21.2,19.4,93,30.23,10.0,South,5.8,-,N/A,,Overcast,190,2013-02-15 10:35:00
3:55 AM,21.2,19.4,93,30.23,10.0,Calm,Calm,-,N/A,,Overcast,0,2013-02-15 10:55:00
4:15 AM,19.4,19.4,100,30.24,10.0,NE,4.6,-,N/A,,Overcast,40,2013-02-15 11:15:00
4:35 AM,19.4,19.4,100,30.25,10.0,Calm,Calm,-,N/A,,Overcast,0,2013-02-15 11:35:00
5:15 AM,21.2,19.4,93,30.26,10.0,West,4.6,-,N/A,,Overcast,280,2013-02-15 12:15:00
5:35 AM,23.0,19.4,86,30.25,10.0,WSW,6.9,-,N/A,,Overcast,240,2013-02-15 12:35:00
5:55 AM,24.8,19.4,80,30.26,10.0,WSW,3.5,-,N/A,,Overcast,250,2013-02-15 12:55:00
6:16 AM,24.8,21.2,86,30.26,10.0,West,4.6,-,N/A,,Overcast,280,2013-02-15 13:16:00
6:35 AM,24.8,19.4,80,30.26,10.0,WSW,5.8,-,N/A,,Overcast,240,2013-02-15 13:35:00
6:55 AM,21.2,17.6,86,30.27,10.0,South,5.8,-,N/A,,Mostly Cloudy,190,2013-02-15 13:55:00
7:15 AM,17.6,15.8,93,30.28,10.0,NNE,10.4,-,N/A,,Scattered Clouds,20,2013-02-15 14:15:00
7:35 AM,17.6,15.8,93,30.29,7.0,Calm,Calm,-,N/A,,Scattered Clouds,0,2013-02-15 14:35:00
7:55 AM,17.6,15.8,93,30.29,0.8,Calm,Calm,-,N/A,,Mostly Cloudy,0,2013-02-15 14:55:00
8:15 AM,17.6,17.6,100,30.30,10.0,Calm,Calm,-,N/A,,Clear,0,2013-02-15 15:15:00
8:35 AM,15.8,14.0,93,30.30,9.0,South,5.8,-,N/A,,Clear,180,2013-02-15 15:35:00
9:15 AM,17.6,15.8,93,30.31,10.0,South,3.5,-,N/A,,Clear,180,2013-02-15 16:15:00
9:35 AM,17.6,15.8,93,30.31,10.0,South,3.5,-,N/A,,Clear,180,2013-02-15 16:35:00
9:55 AM,21.2,19.4,93,30.30,10.0,SSE,3.5,-,N/A,,Clear,160,2013-02-15 16:55:00
10:55 AM,28.4,21.2,74,30.30,10.0,Calm,Calm,-,N/A,,Clear,0,2013-02-15 17:55:00
11:35 AM,30.2,21.2,69,30.28,10.0,Calm,Calm,-,N/A,,Clear,0,2013-02-15 18:35:00
11:55 AM,32.0,23.0,69,30.27,10.0,SE,5.8,-,N/A,,Clear,140,2013-02-15 18:55:00
12:15 PM,33.8,23.0,65,30.26,10.0,SSE,9.2,-,N/A,,Clear,150,2013-02-15 19:15:00
12:35 PM,35.6,24.8,65,30.24,10.0,SE,5.8,-,N/A,,Clear,140,2013-02-15 19:35:00
12:55 PM,39.2,21.2,49,30.24,10.0,West,9.2,17.3,N/A,,Clear,280,2013-02-15 19:55:00
1:15 PM,39.2,21.2,49,30.23,10.0,West,9.2,-,N/A,,Clear,280,2013-02-15 20:15:00
1:35 PM,39.2,21.2,49,30.22,10.0,West,10.4,-,N/A,,Clear,270,2013-02-15 20:35:00
1:55 PM,41.0,19.4,42,30.21,10.0,West,12.7,17.3,N/A,,Clear,270,2013-02-15 20:55:00
2:15 PM,42.8,19.4,39,30.21,10.0,West,10.4,16.1,N/A,,Clear,280,2013-02-15 21:15:00
2:35 PM,42.8,19.4,39,30.20,10.0,ENE,5.8,-,N/A,,Clear,70,2013-02-15 21:35:00
2:55 PM,39.2,24.8,56,30.21,10.0,NE,12.7,-,N/A,,Clear,40,2013-02-15 21:55:00
3:15 PM,37.4,26.6,65,30.21,10.0,ENE,11.5,-,N/A,,Clear,60,2013-02-15 22:15:00